TimeCDT,TemperatureF,Dew PointF,Humidity,Sea Level PressureIn,VisibilityMPH,Wind Direction,Wind SpeedMPH,Gust SpeedMPH,PrecipitationIn,Events,Conditions,WindDirDegrees,DateUTC
12:54 AM,75.0,72.0,90,30.01,9.0,Calm,Calm,-,N/A,,Clear,0,2013-08-24 05:54:00
1:54 AM,73.9,72.0,93,30.02,10.0,Calm,Calm,-,N/A,,Clear,0,2013-08-24 06:54:00
2:54 AM,73.0,71.1,93,30.01,8.0,Calm,Calm,-,N/A,,Clear,0,2013-08-24 07:54:00
3:54 AM,73.0,71.1,93,30.02,8.0,Calm,Calm,-,N/A,,Clear,0,2013-08-24 08:54:00
4:54 AM,73.0,71.1,93,30.02,7.0,Calm,Calm,-,N/A,,Clear,0,2013-08-24 09:54:00
5:54 AM,72.0,70.0,93,30.04,5.0,Calm,Calm,-,N/A,,Clear,0,2013-08-24 10:54:00
6:54 AM,73.0,71.1,93,30.07,6.0,Calm,Calm,-,N/A,,Clear,0,2013-08-24 11:54:00
7:54 AM,75.9,73.0,91,30.09,10.0,Calm,Calm,-,N/A,,Clear,0,2013-08-24 12:54:00
8:54 AM,81.0,73.9,79,30.09,10.0,Calm,Calm,-,N/A,,Clear,0,2013-08-24 13:54:00
9:54 AM,84.0,71.1,65,30.09,10.0,ENE,5.8,-,N/A,,Clear,60,2013-08-24 14:54:00
10:54 AM,87.1,71.1,59,30.09,10.0,Variable,5.8,-,N/A,,Partly Cloudy,0,2013-08-24 15:54:00
11:54 AM,87.1,71.1,59,30.09,10.0,ENE,6.9,-,N/A,,Mostly Cloudy,70,2013-08-24 16:54:00
12:54 PM,91.0,70.0,50,30.08,10.0,East,9.2,-,N/A,,Scattered Clouds,100,2013-08-24 17:54:00
1:54 PM,91.0,72.0,53,30.07,10.0,NE,10.4,-,N/A,,Scattered Clouds,50,2013-08-24 18:54:00
2:54 PM,91.0,71.1,52,30.05,10.0,Variable,5.8,-,0.00,Rain,Light Rain,0,2013-08-24 19:54:00
3:32 PM,80.6,75.2,84,30.07,2.5,ESE,11.5,17.3,0.01,Rain-Thunderstorm,Heavy Thunderstorms and Rain,110,2013-08-24 20:32:00
3:39 PM,82.4,71.6,70,30.06,6.0,SSW,4.6,19.6,0.16,Rain-Thunderstorm,Light Thunderstorms and Rain,200,2013-08-24 20:39:00
3:54 PM,82.9,73.0,72,30.06,10.0,ENE,8.1,-,0.17,Thunderstorm,Thunderstorm,60,2013-08-24 20:54:00
4:01 PM,78.8,73.4,83,30.07,4.0,NE,11.5,17.3,0.00,Rain,Heavy Rain,40,2013-08-24 21:01:00
4:54 PM,81.0,73.0,77,30.08,10.0,ESE,18.4,24.2,0.16,Thunderstorm,Thunderstorm,120,2013-08-24 21:54:00
5:09 PM,77.0,71.6,83,30.09,10.0,SE,13.8,28.8,N/A,Thunderstorm,Thunderstorm,140,2013-08-24 22:09:00
5:36 PM,78.8,71.6,78,30.09,10.0,NE,3.5,-,N/A,,Mostly Cloudy,50,2013-08-24 22:36:00
5:54 PM,80.1,72.0,76,30.06,10.0,NNE,3.5,-,0.00,,Mostly Cloudy,20,2013-08-24 22:54:00
6:54 PM,79.0,72.0,79,30.06,10.0,Calm,Calm,-,N/A,,Scattered Clouds,0,2013-08-24 23:54:00
7:54 PM,77.0,73.0,88,30.06,10.0,Calm,Calm,-,N/A,,Partly Cloudy,0,2013-08-25 00:54:00
8:54 PM,75.9,73.0,91,30.08,10.0,Calm,Calm,-,N/A,,Partly Cloudy,0,2013-08-25 01:54:00
9:54 PM,75.0,73.0,94,30.10,10.0,ESE,3.5,-,N/A,,Clear,120,2013-08-25 02:54:00
10:54 PM,75.0,72.0,90,30.12,10.0,SE,4.6,-,N/A,,Clear,130,2013-08-25 03:54:00
11:54 PM,75.0,72.0,90,30.13,10.0,Calm,Calm,-,N/A,,Clear,0,2013-08-25 04:54:00